Weather History for Manteo, NC

Change the Weather History Date:

Wednesday, November 16, 2011

  Actual Average Record
Temperature  
Mean Temperature 66 °F -  
Max Temperature 71 °F 59 °F 77 °F (2005)
Min Temperature 62 °F 47 °F 30 °F (1967)
Cooling Degree Days 2    
Growing Degree Days 16 (Base 50)    
Moisture  
Dew Point 62 °F    
Average Humidity 87    
Maximum Humidity 94    
Minimum Humidity 78    
Precipitation  
Precipitation 0.00 in - - ()
Sea Level Pressure  
Sea Level Pressure 29.91 in    
Wind  
Wind Speed 10 mph (SSW)    
Max Wind Speed 24 mph    
Max Gust Speed 29 mph    
Visibility 8 miles    
Events Fog , Rain    
Averages and records for this station are not official NWS values.
T = Trace of Precipitation, MM = Missing Value Source: NWS Daily Summary

Daily Weather History Graph

Daily Weather History Graph

Search for Another Location

Airport:

Trip Planner

Search our weather history database for the weather conditions in past years. The results will help you decide how hot, cold, wet, or windy it might be!

Date:

Astronomy

Nov. 16, 2011 Rise Set
Actual Time 6:39 AM EST 4:54 PM EST
Civil Twilight 6:12 AM EST 5:22 PM EST
Nautical Twilight 5:41 AM EST 5:53 PM EST
Astronomical Twilight 5:11 AM EST 6:23 PM EST
Moon 10:04 PM EST (11/16) 11:15 AM EST (11/16)
Length of Visible Light 11h 09m
Length of Day
10h 15m
Waning Gibbous, 70% of the Moon is Illuminated
Nov 16
Waning Gibbous
Nov 18
Last Quarter
Nov 25
New
Dec 2
First Quarter
Dec 10
Full

Hourly Weather History & Observations

Time (EST) Temp. Dew Point Humidity Pressure Visibility Wind Dir Wind Speed Gust Speed Precip Events Conditions
12:15 AM 64.4 °F 60.8 °F 88% 29.98 in 7.0 mi South 4.6 mph - N/A Rain Rain
12:35 AM 64.4 °F 62.6 °F 94% 29.98 in 10.0 mi SSW 8.1 mph - N/A   Overcast
12:55 AM 64.4 °F 62.6 °F 94% 29.97 in 7.0 mi South 9.2 mph - N/A Rain Light Rain
1:15 AM 64.4 °F 62.6 °F 94% 29.96 in 10.0 mi SSW 4.6 mph - N/A   Mostly Cloudy
1:55 AM 64.4 °F 60.8 °F 88% 29.97 in 10.0 mi SSW 9.2 mph - N/A   Overcast
2:15 AM 64.4 °F 62.6 °F 94% 29.96 in 10.0 mi South 6.9 mph - N/A Rain Light Rain
2:35 AM 64.4 °F 60.8 °F 88% 29.96 in 10.0 mi SSW 8.1 mph - N/A   Overcast
2:55 AM 64.4 °F 60.8 °F 88% 29.97 in 10.0 mi SSW 8.1 mph - N/A   Overcast
3:15 AM 64.4 °F 60.8 °F 88% 29.96 in 10.0 mi South 8.1 mph - N/A   Overcast
3:35 AM 62.6 °F 60.8 °F 94% 29.95 in 10.0 mi SSE 8.1 mph - N/A   Overcast
3:55 AM 62.6 °F 60.8 °F 94% 29.96 in 10.0 mi South 6.9 mph - N/A   Overcast
4:15 AM 62.6 °F 60.8 °F 94% 29.96 in 7.0 mi South 8.1 mph - N/A   Mostly Cloudy
4:35 AM 62.6 °F 60.8 °F 94% 29.95 in 4.0 mi South 9.2 mph - N/A   Overcast
4:55 AM 62.6 °F 60.8 °F 94% 29.96 in 1.0 mi South 9.2 mph - N/A   Overcast
5:15 AM 62.6 °F 59.0 °F 88% 29.96 in 0.8 mi South 9.2 mph - N/A   Light Drizzle
5:35 AM 62.6 °F 59.0 °F 88% 29.96 in 5.0 mi South 9.2 mph - N/A   Overcast
5:55 AM 62.6 °F 59.0 °F 88% 29.96 in 7.0 mi South 6.9 mph - N/A   Mostly Cloudy
6:35 AM 62.6 °F 60.8 °F 94% 29.96 in 10.0 mi South 8.1 mph - N/A   Clear
6:55 AM 62.6 °F 60.8 °F 94% 29.96 in 10.0 mi South 8.1 mph - N/A   Clear
7:15 AM 62.6 °F 60.8 °F 94% 29.95 in 10.0 mi South 6.9 mph - N/A   Mostly Cloudy
7:35 AM 62.6 °F 60.8 °F 94% 29.96 in 10.0 mi South 8.1 mph - N/A   Overcast
7:55 AM 62.6 °F 60.8 °F 94% 29.97 in 0.5 mi SSW 6.9 mph - N/A Fog Fog
8:15 AM 62.6 °F 60.8 °F 94% 29.97 in 0.2 mi SW 6.9 mph - N/A Fog Fog
8:35 AM 64.4 °F 60.8 °F 88% 29.97 in 0.2 mi SW 8.1 mph - N/A Fog Fog
8:55 AM 64.4 °F 62.6 °F 94% 29.97 in 0.2 mi SSW 5.8 mph - N/A Fog Fog
9:15 AM 64.4 °F 62.6 °F 94% 29.96 in 1.2 mi SSW 5.8 mph - N/A   Overcast
9:35 AM 64.4 °F 62.6 °F 94% 29.95 in 2.5 mi South 5.8 mph - N/A   Overcast
9:55 AM 68.0 °F 64.4 °F 88% 29.94 in 10.0 mi South 6.9 mph - N/A   Overcast
10:15 AM 68.0 °F 64.4 °F 88% 29.93 in 10.0 mi South 8.1 mph - N/A   Scattered Clouds
10:35 AM 68.0 °F 62.6 °F 83% 29.93 in 10.0 mi South 13.8 mph - N/A   Clear
10:55 AM 69.8 °F 62.6 °F 78% 29.92 in 10.0 mi South 16.1 mph - N/A   Clear
11:15 AM 68.0 °F 62.6 °F 83% 29.91 in 10.0 mi South 15.0 mph - N/A   Clear
11:35 AM 68.0 °F 62.6 °F 83% 29.90 in 10.0 mi South 15.0 mph - N/A   Clear
11:55 AM 69.8 °F 62.6 °F 78% 29.90 in 10.0 mi South 16.1 mph - N/A   Clear
12:15 PM 69.8 °F 62.6 °F 78% 29.89 in 10.0 mi South 16.1 mph - N/A   Clear
12:35 PM 69.8 °F 62.6 °F 78% 29.87 in 10.0 mi South 16.1 mph - N/A   Clear
12:55 PM 69.8 °F 62.6 °F 78% 29.87 in 10.0 mi South 16.1 mph - N/A   Clear
1:15 PM 68.0 °F 62.6 °F 83% 29.86 in 10.0 mi South 15.0 mph - N/A   Clear
1:35 PM 69.8 °F 62.6 °F 78% 29.86 in 10.0 mi South 15.0 mph - N/A   Scattered Clouds
1:55 PM 69.8 °F 62.6 °F 78% 29.85 in 10.0 mi South 12.7 mph - N/A   Scattered Clouds
2:15 PM 69.8 °F 62.6 °F 78% 29.85 in 10.0 mi South 16.1 mph - N/A   Clear
2:35 PM 71.6 °F 64.4 °F 78% 29.85 in 10.0 mi SSW 13.8 mph - N/A   Clear
2:55 PM 69.8 °F 64.4 °F 83% 29.83 in 10.0 mi SSW 16.1 mph - N/A   Clear
3:15 PM 69.8 °F 62.6 °F 78% 29.83 in 10.0 mi SSW 19.6 mph - N/A   Clear
3:35 PM 69.8 °F 62.6 °F 78% 29.83 in 10.0 mi SSW 17.3 mph - N/A   Clear
3:55 PM 69.8 °F 64.4 °F 83% 29.83 in 10.0 mi SSW 18.4 mph - N/A   Clear
4:15 PM 69.8 °F 62.6 °F 78% 29.82 in 10.0 mi SSW 17.3 mph - N/A   Clear
4:35 PM 68.0 °F 62.6 °F 83% 29.82 in 7.0 mi SSW 17.3 mph - N/A   Clear
4:55 PM 68.0 °F 62.6 °F 83% 29.83 in 7.0 mi SSW 20.7 mph - N/A   Clear
5:15 PM 68.0 °F 64.4 °F 88% 29.82 in 7.0 mi SSW 23.0 mph 28.8 mph N/A   Scattered Clouds
5:35 PM 68.0 °F 64.4 °F 88% 29.82 in 7.0 mi SSW 23.0 mph - N/A   Mostly Cloudy
5:55 PM 68.0 °F 64.4 °F 88% 29.82 in 7.0 mi SSW 24.2 mph 28.8 mph N/A   Overcast
6:15 PM 68.0 °F 64.4 °F 88% 29.82 in 7.0 mi SSW 24.2 mph - N/A   Mostly Cloudy
6:35 PM 68.0 °F 64.4 °F 88% 29.83 in 10.0 mi SSW 23.0 mph - N/A   Mostly Cloudy
6:55 PM 68.0 °F 64.4 °F 88% 29.83 in 7.0 mi SSW 21.9 mph 26.5 mph N/A   Mostly Cloudy
7:15 PM 68.0 °F 64.4 °F 88% 29.83 in 7.0 mi SSW 18.4 mph 26.5 mph N/A   Scattered Clouds
7:35 PM 68.0 °F 64.4 °F 88% 29.83 in 7.0 mi SSW 20.7 mph - N/A   Scattered Clouds
7:55 PM 68.0 °F 64.4 °F 88% 29.83 in 7.0 mi SSW 20.7 mph - N/A   Scattered Clouds
8:15 PM 68.0 °F 64.4 °F 88% 29.83 in 7.0 mi SSW 18.4 mph - N/A   Clear
8:35 PM 69.8 °F 64.4 °F 83% 29.83 in 10.0 mi SW 23.0 mph 27.6 mph N/A   Clear
8:55 PM 69.8 °F 62.6 °F 78% 29.83 in 10.0 mi SW 20.7 mph 26.5 mph N/A   Clear
9:15 PM 69.8 °F 64.4 °F 83% 29.83 in 10.0 mi SW 18.4 mph - N/A   Clear
9:35 PM 69.8 °F 62.6 °F 78% 29.83 in 7.0 mi SW 17.3 mph - N/A   Scattered Clouds
9:55 PM 69.8 °F 62.6 °F 78% 29.82 in 10.0 mi SW 19.6 mph - N/A   Clear
10:15 PM 69.8 °F 62.6 °F 78% 29.81 in 10.0 mi SW 18.4 mph - N/A   Clear
10:35 PM 69.8 °F 62.6 °F 78% 29.82 in 10.0 mi SW 23.0 mph 28.8 mph N/A   Clear
10:55 PM 69.8 °F 64.4 °F 83% 29.81 in 10.0 mi SW 20.7 mph - N/A   Clear
11:15 PM 71.6 °F 64.4 °F 78% 29.81 in 10.0 mi SW 23.0 mph 31.1 mph N/A   Scattered Clouds
11:35 PM 69.8 °F 64.4 °F 83% 29.83 in 7.0 mi SW 24.2 mph 31.1 mph N/A Rain Light Rain
11:55 PM 69.8 °F 64.4 °F 83% 29.84 in 4.0 mi SW 24.2 mph 48.3 mph N/A Rain Heavy Rain